AIM

Last updated on July 6, 2021, 3:27 p.m. UTC

1 31304U 07015A   21186.70524241  .00001377  00000-0  78680-4 0  9998
2 31304  97.8677  88.9999 0006375 117.5095 242.6784 15.14496651778678
UTC
Height (km)
Latitude
Longitude
Inclination
Orbital Period
UTC large
Height (km)
Speed (km/s)
/
Latitude / Longitude
Inclination (degrees)
Orbital Period (minutes)
Azimuth
Elevation
Range (km)
Doppler Factor
iOS Compass Heading
iOS Angle